| time (UTC) | temp C | wind direction | speed KPH | gust KPH | rain 1hr cm | rain 24hr cm | rain mn cm | humidity % | barometer mb |
| 20260503024552 | 8 | 259 | 0.0 | 0.0 | 0.00 | 0.00 | 0.00 | 82 | 1011.4 |
| 20260503023048 | 8 | 259 | 0.0 | 0.0 | 0.00 | 0.00 | 0.00 | 82 | 1011.4 |
| 20260503021551 | 8 | 259 | 0.0 | 0.0 | 0.00 | 0.00 | 0.00 | 82 | 1011.5 |
| 20260503020052 | 8 | 259 | 0.0 | 0.0 | 0.00 | 0.00 | 0.00 | 80 | 1011.4 |
| 20260503014607 | 8 | 259 | 0.0 | 0.0 | 0.00 | 0.00 | 0.00 | 79 | 1011.5 |
| 20260503013041 | 9 | 259 | 0.0 | 0.0 | 0.00 | 0.00 | 0.00 | 79 | 1011.4 |
| 20260503011545 | 10 | 259 | 0.0 | 0.0 | 0.00 | 0.00 | 0.00 | 77 | 1011.5 |
| 20260503004533 | 11 | 259 | 0.0 | 0.0 | 0.00 | 0.00 | 0.00 | 75 | 1011.5 |
| 20260503003026 | 11 | 259 | 0.0 | 0.0 | 0.00 | 0.00 | 0.00 | 72 | 1011.5 |
| 20260503001525 | 12 | 259 | 0.0 | 0.0 | 0.00 | 0.00 | 0.00 | 69 | 1011.6 |
| 20260503000019 | 13 | 259 | 0.0 | 0.0 | 0.00 | 0.00 | 0.00 | 65 | 1011.8 |
| 20260502234515 | 13 | 259 | 0.0 | 0.0 | 0.00 | 0.00 | 0.00 | 63 | 1011.9 |
| 20260502233013 | 14 | 259 | 0.0 | 0.0 | 0.00 | 0.00 | 0.00 | 60 | 1012.1 |
| 20260502231510 | 15 | 261 | 1.6 | 4.8 | 0.00 | 0.00 | 0.00 | 60 | 1012.2 |
| 20260502230012 | 15 | 263 | 0.0 | 0.0 | 0.00 | 0.00 | 0.00 | 59 | 1012.3 |
| 20260502224505 | 15 | 263 | 0.0 | 0.0 | 0.00 | 0.00 | 0.00 | 58 | 1012.4 |
| 20260502223002 | 16 | 263 | 0.0 | 1.6 | 0.00 | 0.00 | 0.00 | 58 | 1012.3 |
| 20260502221559 | 16 | 263 | 0.0 | 4.8 | 0.00 | 0.00 | 0.00 | 54 | 1012.3 |
| 20260502214556 | 16 | 263 | 0.0 | 1.6 | 0.00 | 0.00 | 0.00 | 52 | 1012.3 |
| 20260502213037 | 17 | 263 | 0.0 | 4.8 | 0.00 | 0.00 | 0.00 | 48 | 1012.4 |
| 20260502211542 | 17 | 264 | 1.6 | 4.8 | 0.00 | 0.00 | 0.00 | 47 | 1012.5 |
| 20260502210139 | 17 | 267 | 0.0 | 4.8 | 0.00 | 0.00 | 0.00 | 47 | 1012.6 |
| 20260502204555 | 17 | 258 | 0.0 | 3.2 | 0.00 | 0.00 | 0.00 | 47 | 1012.6 |
| 20260502203058 | 17 | 250 | 0.0 | 1.6 | 0.00 | 0.00 | 0.00 | 47 | 1012.7 |
| 20260502201541 | 18 | 241 | 0.0 | 1.6 | 0.00 | 0.00 | 0.00 | 51 | 1012.7 |
| 20260502200039 | 18 | 241 | 0.0 | 1.6 | 0.00 | 0.00 | 0.00 | 52 | 1012.8 |
| 20260502194642 | 18 | 241 | 0.0 | 1.6 | 0.00 | 0.00 | 0.00 | 51 | 1012.8 |
| 20260502193051 | 19 | 241 | 0.0 | 3.2 | 0.00 | 0.00 | 0.00 | 49 | 1012.8 |
| 20260502191546 | 20 | 241 | 0.0 | 4.8 | 0.00 | 0.00 | 0.00 | 47 | 1012.7 |
| 20260502190042 | 20 | 209 | 0.0 | 4.8 | 0.00 | 0.00 | 0.00 | 45 | 1012.7 |
| 20260502184641 | 20 | 227 | 1.6 | 6.4 | 0.00 | 0.00 | 0.00 | 46 | 1012.7 |
| 20260502183058 | 20 | 217 | 1.6 | 8.0 | 0.00 | 0.00 | 0.00 | 46 | 1012.8 |
| 20260502163058 | 22 | 223 | 11.3 | 19.3 | 0.00 | 0.00 | 0.00 | 38 | 1013.1 |
| 20260502161651 | 23 | 257 | 11.3 | 24.1 | 0.00 | 0.00 | 0.00 | 37 | 1013.4 |
| 20260502151648 | 23 | 198 | 11.3 | 19.3 | 0.00 | 0.00 | 0.00 | 40 | 1014.0 |
| 20260502150108 | 23 | 200 | 12.9 | 27.4 | 0.00 | 0.00 | 0.00 | 39 | 1014.1 |
| 20260502130140 | 24 | 216 | 14.5 | 25.7 | 0.00 | 0.00 | 0.00 | 34 | 1015.4 |
| 20260502123140 | 23 | 210 | 12.9 | 22.5 | 0.00 | 0.00 | 0.00 | 37 | 1015.8 |
| 20260502121552 | 23 | 178 | 12.9 | 24.1 | 0.00 | 0.00 | 0.00 | 37 | 1016.1 |
| 20260502120153 | 23 | 202 | 14.5 | 20.9 | 0.00 | 0.00 | 0.00 | 37 | 1016.2 |
| 20260502114611 | 23 | 221 | 16.1 | 27.4 | 0.00 | 0.00 | 0.00 | 36 | 1016.5 |
| 20260502113016 | 23 | 208 | 16.1 | 25.7 | 0.00 | 0.00 | 0.00 | 38 | 1016.5 |
| 20260502111606 | 23 | 209 | 11.3 | 17.7 | 0.00 | 0.00 | 0.00 | 40 | 1016.7 |
| 20260502110155 | 23 | 219 | 12.9 | 22.5 | 0.00 | 0.00 | 0.00 | 40 | 1017.0 |
| 20260502104553 | 23 | 193 | 9.7 | 22.5 | 0.00 | 0.00 | 0.00 | 42 | 1017.1 |
| 20260502103005 | 23 | 232 | 9.7 | 19.3 | 0.00 | 0.00 | 0.00 | 40 | 1017.2 |
| 20260502101627 | 22 | 228 | 6.4 | 19.3 | 0.00 | 0.00 | 0.00 | 46 | 1017.3 |
| 20260502071507 | 18 | 211 | 6.4 | 16.1 | 0.00 | 0.00 | 0.00 | 54 | 1018.5 |
| 20260502070001 | 17 | 221 | 9.7 | 16.1 | 0.00 | 0.00 | 0.00 | 54 | 1018.6 |
| 20260502064559 | 17 | 186 | 8.0 | 19.3 | 0.00 | 0.00 | 0.00 | 55 | 1018.8 |
| 20260502063057 | 16 | 182 | 9.7 | 17.7 | 0.00 | 0.00 | 0.00 | 56 | 1018.8 |
| 20260502061549 | 15 | 190 | 6.4 | 11.3 | 0.00 | 0.00 | 0.00 | 61 | 1018.8 |
| 20260502060043 | 14 | 198 | 4.8 | 9.7 | 0.00 | 0.00 | 0.00 | 64 | 1019.0 |
| 20260502054541 | 13 | 225 | 1.6 | 4.8 | 0.00 | 0.00 | 0.00 | 68 | 1019.1 |
| 20260502053034 | 11 | 227 | 0.0 | 3.2 | 0.00 | 0.00 | 0.00 | 71 | 1019.2 |
| 20260502051529 | 11 | 229 | 0.0 | 1.6 | 0.00 | 0.00 | 0.00 | 77 | 1019.3 |
| 20260502050024 | 9 | 229 | 0.0 | 0.0 | 0.00 | 0.00 | 0.00 | 81 | 1019.4 |
| 20260502044520 | 7 | 229 | 0.0 | 0.0 | 0.00 | 0.00 | 0.00 | 81 | 1019.6 |
| 20260502043015 | 6 | 229 | 0.0 | 0.0 | 0.00 | 0.00 | 0.00 | 84 | 1019.6 |
| 20260502041512 | 5 | 229 | 0.0 | 0.0 | 0.00 | 0.00 | 0.00 | 88 | 1019.8 |
| 20260502040008 | -17 | 0.0 | 0.0 | 0.00 | 0.00 | 0.00 | 1019.9 | ||
| 20260502034505 | -17 | 0.0 | 0.0 | 0.00 | 0.00 | 0.00 | 1020.1 | ||
| 20260502033100 | 3 | 229 | 0.0 | 0.0 | 0.00 | 0.00 | 0.00 | 88 | 1020.3 |
| 20260502033001 | 3 | 229 | 0.0 | 0.0 | 0.00 | 0.00 | 0.00 | 88 | 1020.3 |
| 20260502031558 | 3 | 229 | 0.0 | 0.0 | 0.00 | 0.00 | 0.00 | 88 | 1020.4 |
| 20260502030106 | 3 | 229 | 0.0 | 0.0 | 0.00 | 0.00 | 0.00 | 87 | 1020.6 |